Precipitable_Water
1.25 1.30 1.30 1.32 1.36 1.37 1.34 1.36 1.38 1.38 1.40 1.38 1.38 1.36 1.33 1.29 1.31 1.31 1.30 1.25 1.21 1.17 1.16 1.17 1.19 1.17 1.15 1.18 1.21 1.25 1.26 1.31 1.30 1.27 1.28 1.25 1.21 1.17 1.12 1.07 1.00 0.92 0.90 0.87 0.84 0.84 0.83 0.82 0.81 0.80 0.79 0.77 0.76 0.75 0.77 0.78 0.80 0.83 0.78 0.75 0.72 0.68 0.66 0.65 0.66 0.66 0.67 0.66 0.66 0.66 0.64 0.64 0.63 0.61 0.59 0.59 0.59 0.58 0.55 0.54 0.54 0.54 0.54 0.53 0.53
1.19 1.36 1.26 1.31 1.35 1.32 1.29 1.25 1.27 1.35 1.37 1.33 1.40 1.42 1.37 1.35 1.34 1.34 1.33 1.30 1.26 1.24 1.21 1.16 1.12 1.09 1.12 1.13 1.13 1.21 1.27 1.31 1.32 1.32 1.34 1.31 1.27 1.21 1.14 1.09 1.05 1.03 1.00 0.96 0.89 0.85 0.83 0.82 0.79 0.78 0.76 0.75 0.74 0.73 0.74 0.74 0.76 0.79 0.80 0.80 0.72 0.69 0.66 0.64 0.64 0.66 0.65 0.66 0.66 0.66 0.67 0.67 0.65 0.63 0.61 0.61 0.60 0.60 0.59 0.57 0.55 0.53 0.52 0.52 0.51
1.23 1.22 1.18 1.26 1.35 1.29 1.33 1.37 1.40 1.40 1.41 1.39 1.38 1.36 1.38 1.39 1.35 1.33 1.33 1.33 1.32 1.31 1.27 1.24 1.21 1.19 1.16 1.10 1.11 1.12 1.18 1.26 1.31 1.35 1.36 1.34 1.29 1.24 1.17 1.12 1.10 1.09 1.05 1.04 1.03 0.98 0.89 0.83 0.80 0.76 0.75 0.73 0.73 0.73 0.73 0.72 0.73 0.74 0.79 0.80 0.75 0.71 0.68 0.64 0.62 0.64 0.66 0.65 0.65 0.64 0.65 0.66 0.65 0.64 0.63 0.62 0.61 0.60 0.60 0.59 0.57 0.55 0.53 0.51 0.50
1.17 1.15 1.27 1.26 1.35 1.43 1.42 1.45 1.36 1.40 1.41 1.37 1.35 1.35 1.34 1.39 1.39 1.37 1.35 1.34 1.32 1.29 1.29 1.24 1.22 1.20 1.19 1.15 1.15 1.10 1.09 1.15 1.21 1.28 1.32 1.33 1.32 1.31 1.24 1.18 1.14 1.11 1.08 1.07 1.07 1.08 1.05 0.96 0.86 0.80 0.79 0.77 0.74 0.74 0.73 0.73 0.73 0.75 0.79 0.79 0.75 0.71 0.68 0.65 0.62 0.61 0.63 0.65 0.65 0.64 0.65 0.67 0.68 0.65 0.64 0.63 0.62 0.60 0.58 0.60 0.61 0.61 0.58 0.55 0.54
1.16 1.15 1.20 1.31 1.35 1.36 1.40 1.36 1.33 1.37 1.39 1.39 1.35 1.34 1.36 1.36 1.37 1.37 1.34 1.35 1.31 1.29 1.29 1.27 1.21 1.19 1.19 1.17 1.16 1.12 1.11 1.10 1.13 1.19 1.25 1.30 1.30 1.31 1.29 1.23 1.17 1.14 1.10 1.08 1.08 1.09 1.09 1.06 0.99 0.90 0.82 0.80 0.80 0.78 0.77 0.79 0.77 0.77 0.80 0.80 0.74 0.70 0.70 0.66 0.60 0.61 0.61 0.62 0.64 0.64 0.65 0.67 0.67 0.67 0.65 0.62 0.62 0.61 0.60 0.59 0.60 0.62 0.62 0.60 0.55
1.22 1.23 1.25 1.25 1.26 1.24 1.30 1.28 1.34 1.37 1.39 1.38 1.34 1.37 1.33 1.33 1.34 1.31 1.30 1.29 1.29 1.31 1.29 1.26 1.25 1.25 1.23 1.22 1.18 1.18 1.17 1.12 1.10 1.13 1.21 1.24 1.27 1.26 1.26 1.25 1.21 1.16 1.13 1.10 1.06 1.05 1.06 1.09 1.09 1.05 0.96 0.87 0.84 0.84 0.82 0.82 0.84 0.80 0.82 0.84 0.76 0.74 0.70 0.68 0.64 0.61 0.61 0.63 0.63 0.65 0.66 0.68 0.68 0.68 0.66 0.65 0.62 0.61 0.60 0.60 0.60 0.60 0.60 0.59 0.58
1.22 1.22 1.20 1.24 1.22 1.19 1.21 1.26 1.31 1.34 1.30 1.30 1.31 1.32 1.30 1.27 1.29 1.26 1.28 1.27 1.28 1.30 1.29 1.28 1.28 1.24 1.24 1.25 1.21 1.24 1.22 1.16 1.10 1.09 1.13 1.20 1.27 1.26 1.26 1.22 1.18 1.14 1.12 1.09 1.08 1.08 1.08 1.07 1.10 1.11 1.09 1.06 0.96 0.91 0.88 0.86 0.87 0.87 0.84 0.89 0.83 0.78 0.74 0.70 0.68 0.66 0.62 0.63 0.64 0.67 0.69 0.71 0.72 0.71 0.67 0.66 0.64 0.62 0.61 0.60 0.59 0.60 0.60 0.59 0.58
1.20 1.22 1.18 1.23 1.20 1.23 1.25 1.26 1.29 1.30 1.28 1.29 1.30 1.24 1.20 1.18 1.21 1.20 1.16 1.19 1.22 1.22 1.26 1.23 1.24 1.24 1.31 1.33 1.33 1.33 1.28 1.26 1.19 1.11 1.10 1.14 1.17 1.21 1.21 1.18 1.14 1.10 1.08 1.06 1.04 1.06 1.08 1.08 1.08 1.11 1.11 1.11 1.09 1.05 0.99 0.94 0.91 0.90 0.89 0.88 0.88 0.84 0.78 0.76 0.75 0.74 0.67 0.67 0.67 0.70 0.72 0.74 0.74 0.74 0.69 0.67 0.66 0.65 0.64 0.61 0.61 0.60 0.59 0.58 0.58
1.05 1.07 1.09 1.19 1.22 1.24 1.28 1.28 1.29 1.26 1.24 1.25 1.25 1.22 1.14 1.08 1.11 1.15 1.14 1.11 1.12 1.13 1.17 1.21 1.21 1.24 1.29 1.34 1.37 1.37 1.32 1.28 1.26 1.25 1.21 1.14 1.13 1.13 1.16 1.20 1.21 1.20 1.17 1.14 1.11 1.09 1.08 1.08 1.09 1.10 1.12 1.13 1.13 1.11 1.09 1.05 1.01 0.93 0.92 0.90 0.90 0.88 0.84 0.78 0.77 0.79 0.80 0.77 0.75 0.72 0.74 0.75 0.75 0.75 0.73 0.69 0.68 0.67 0.65 0.63 0.61 0.61 0.59 0.58 0.58
1.08 1.10 1.13 1.24 1.24 1.25 1.24 1.24 1.22 1.22 1.22 1.20 1.19 1.21 1.14 1.06 1.01 1.08 1.10 1.06 1.02 1.04 1.08 1.15 1.20 1.23 1.26 1.27 1.29 1.33 1.34 1.30 1.30 1.31 1.28 1.24 1.24 1.23 1.26 1.29 1.29 1.28 1.23 1.18 1.15 1.14 1.14 1.12 1.10 1.10 1.11 1.13 1.15 1.15 1.13 1.11 1.09 1.04 0.97 0.96 0.95 0.91 0.88 0.83 0.79 0.78 0.85 0.86 0.82 0.81 0.77 0.75 0.76 0.75 0.75 0.72 0.69 0.67 0.66 0.65 0.62 0.59 0.60 0.59 0.58
1.02 1.11 1.19 1.24 1.17 1.19 1.17 1.18 1.18 1.17 1.16 1.14 1.12 1.14 1.14 1.10 1.03 1.03 1.09 1.06 1.01 1.01 1.05 1.14 1.16 1.18 1.20 1.24 1.29 1.33 1.36 1.34 1.32 1.30 1.30 1.31 1.31 1.30 1.31 1.31 1.32 1.31 1.28 1.24 1.20 1.18 1.16 1.18 1.18 1.14 1.11 1.12 1.14 1.17 1.16 1.16 1.14 1.12 1.07 1.07 1.05 1.01 0.95 0.91 0.85 0.83 0.83 0.89 0.91 0.89 0.85 0.81 0.80 0.77 0.77 0.75 0.73 0.69 0.67 0.65 0.62 0.59 0.58 0.59 0.59
1.11 1.09 1.10 1.14 1.11 1.10 1.11 1.14 1.13 1.12 1.07 1.04 1.06 1.11 1.10 1.08 1.07 1.05 1.03 1.06 1.08 1.07 1.13 1.15 1.19 1.20 1.24 1.30 1.33 1.33 1.32 1.31 1.27 1.25 1.25 1.25 1.25 1.28 1.29 1.32 1.33 1.34 1.36 1.35 1.31 1.27 1.24 1.25 1.26 1.26 1.23 1.19 1.19 1.20 1.21 1.20 1.18 1.15 1.12 1.10 1.11 1.12 1.06 0.98 0.94 0.91 0.87 0.88 0.93 0.95 0.92 0.89 0.85 0.82 0.79 0.78 0.76 0.74 0.71 0.68 0.66 0.63 0.59 0.59 0.60
1.25 1.27 1.19 1.13 1.14 1.16 1.16 1.15 1.13 1.08 1.05 1.03 1.06 1.09 1.12 1.12 1.09 1.11 1.03 0.97 0.97 1.08 1.16 1.20 1.14 1.10 1.18 1.24 1.28 1.30 1.24 1.19 1.15 1.13 1.11 1.13 1.14 1.12 1.17 1.21 1.28 1.34 1.39 1.41 1.38 1.38 1.35 1.33 1.33 1.35 1.34 1.32 1.25 1.23 1.22 1.23 1.22 1.19 1.17 1.16 1.16 1.19 1.16 1.06 1.00 1.00 0.99 0.95 0.93 0.95 0.93 0.89 0.86 0.83 0.83 0.83 0.84 0.81 0.76 0.72 0.69 0.67 0.63 0.59 0.59
1.11 1.11 1.11 1.11 1.08 1.05 1.02 0.98 1.00 1.03 1.02 1.03 1.03 1.05 1.05 1.05 1.05 1.04 1.07 0.97 0.93 1.11 1.20 1.20 1.08 0.99 0.94 0.99 1.06 1.15 1.16 1.14 1.08 1.04 1.02 1.01 1.00 0.99 1.00 1.05 1.12 1.24 1.37 1.41 1.41 1.42 1.40 1.43 1.40 1.39 1.37 1.35 1.32 1.25 1.22 1.22 1.21 1.21 1.22 1.17 1.17 1.21 1.23 1.20 1.08 1.03 1.03 1.00 0.98 0.94 0.94 0.90 0.87 0.86 0.86 0.88 0.89 0.89 0.84 0.78 0.75 0.72 0.69 0.64 0.59
0.97 0.96 0.94 0.94 0.93 0.93 0.91 0.92 0.91 0.95 0.94 0.94 0.97 0.97 0.99 0.99 1.00 0.94 0.94 1.05 1.09 1.09 1.14 1.12 1.03 1.09 1.03 0.90 0.85 0.81 0.93 1.00 1.05 1.01 0.97 0.97 0.97 0.94 0.98 1.01 1.07 1.18 1.28 1.34 1.36 1.40 1.43 1.43 1.40 1.44 1.46 1.41 1.36 1.31 1.28 1.25 1.22 1.21 1.21 1.21 1.19 1.19 1.27 1.30 1.26 1.16 1.10 1.06 1.01 0.99 0.97 0.94 0.90 0.89 0.88 0.90 0.91 0.91 0.90 0.85 0.81 0.78 0.76 0.72 0.66
0.74 0.77 0.79 0.81 0.82 0.78 0.79 0.80 0.81 0.89 0.88 0.88 0.90 0.92 0.95 0.94 0.95 0.96 0.99 0.99 1.03 1.02 1.15 1.18 1.11 1.05 0.84 0.79 0.83 0.81 0.69 0.76 0.84 0.94 0.94 0.89 0.88 0.87 0.93 0.95 1.01 1.10 1.21 1.24 1.29 1.31 1.38 1.46 1.46 1.42 1.49 1.52 1.48 1.45 1.37 1.30 1.25 1.24 1.22 1.20 1.17 1.16 1.16 1.28 1.35 1.37 1.32 1.22 1.13 1.07 1.03 0.98 0.96 0.94 0.92 0.93 0.94 0.92 0.92 0.91 0.87 0.83 0.82 0.81 0.77
0.66 0.69 0.72 0.76 0.84 0.86 0.83 0.82 0.79 0.82 0.84 0.83 0.82 0.83 0.88 0.93 0.94 0.93 0.93 0.89 0.89 1.00 1.11 1.16 1.11 1.18 1.02 0.84 0.74 0.68 0.67 0.78 0.82 0.81 0.89 0.81 0.81 0.81 0.84 0.87 0.91 0.97 1.04 1.14 1.25 1.27 1.31 1.38 1.44 1.47 1.48 1.52 1.49 1.45 1.48 1.40 1.34 1.33 1.32 1.27 1.24 1.19 1.16 1.12 1.18 1.24 1.29 1.35 1.33 1.27 1.17 1.06 1.05 1.04 1.01 0.98 0.97 0.96 0.94 0.94 0.93 0.91 0.89 0.88 0.87
0.64 0.68 0.72 0.76 0.81 0.86 0.86 0.84 0.84 0.84 0.85 0.83 0.82 0.81 0.82 0.85 0.91 0.93 0.94 1.02 0.98 0.94 0.97 1.12 1.10 1.07 1.11 1.03 0.90 0.71 0.73 0.87 0.80 0.63 0.86 0.88 0.83 0.79 0.77 0.77 0.82 0.87 0.94 0.99 1.06 1.14 1.21 1.25 1.31 1.36 1.41 1.46 1.46 1.44 1.41 1.38 1.32 1.28 1.31 1.31 1.31 1.30 1.24 1.17 1.15 1.15 1.21 1.21 1.27 1.29 1.25 1.17 1.08 1.07 1.05 1.03 1.02 1.02 1.02 1.01 1.00 0.99 1.00 0.98 0.95
0.58 0.62 0.66 0.69 0.70 0.73 0.74 0.76 0.83 0.87 0.87 0.84 0.80 0.80 0.82 0.86 0.91 0.91 0.92 0.97 0.95 0.87 0.92 0.95 1.00 1.06 1.06 1.03 0.96 0.99 0.95 0.75 0.61 0.66 0.55 0.69 0.80 0.81 0.83 0.91 0.95 0.97 0.97 0.99 1.03 1.03 1.09 1.17 1.24 1.33 1.46 1.49 1.49 1.49 1.46 1.44 1.40 1.35 1.35 1.34 1.33 1.35 1.32 1.26 1.24 1.22 1.20 1.21 1.25 1.26 1.29 1.24 1.12 1.08 1.08 1.08 1.08 1.09 1.09 1.08 1.07 1.07 1.07 1.09 1.08
0.54 0.57 0.62 0.65 0.67 0.68 0.69 0.72 0.74 0.79 0.80 0.78 0.78 0.82 0.85 0.96 1.01 0.97 0.98 0.96 0.94 0.85 0.84 0.90 0.82 0.83 0.92 0.90 0.91 1.03 0.98 0.89 0.86 0.70 0.61 0.53 0.60 0.78 0.83 0.83 0.96 0.97 0.98 0.97 0.95 0.97 1.02 1.12 1.18 1.20 1.25 1.37 1.44 1.42 1.43 1.44 1.43 1.42 1.40 1.41 1.40 1.35 1.33 1.31 1.30 1.29 1.28 1.24 1.24 1.26 1.24 1.21 1.19 1.16 1.18 1.20 1.17 1.15 1.18 1.18 1.16 1.15 1.14 1.15 1.16
0.54 0.53 0.57 0.62 0.63 0.63 0.65 0.66 0.70 0.73 0.73 0.72 0.73 0.74 0.76 0.80 0.83 0.86 0.86 0.86 0.88 0.89 0.86 0.84 0.83 0.84 0.89 0.85 0.90 0.85 0.81 0.78 0.77 0.76 0.65 0.61 0.63 0.67 0.68 0.81 0.86 0.87 0.88 0.89 0.88 0.93 0.97 1.04 1.10 1.14 1.16 1.25 1.30 1.27 1.28 1.38 1.45 1.40 1.45 1.46 1.47 1.44 1.36 1.35 1.35 1.35 1.35 1.33 1.29 1.25 1.21 1.26 1.29 1.30 1.31 1.24 1.22 1.24 1.25 1.26 1.27 1.25 1.22 1.22 1.22
0.50 0.51 0.50 0.53 0.57 0.59 0.60 0.62 0.66 0.68 0.69 0.70 0.70 0.68 0.67 0.72 0.79 0.82 0.85 0.82 0.81 0.80 0.78 0.80 0.85 0.87 0.86 0.79 0.70 0.69 0.63 0.60 0.61 0.63 0.71 0.72 0.56 0.52 0.51 0.50 0.56 0.70 0.80 0.80 0.84 0.89 0.91 0.97 1.05 1.13 1.16 1.17 1.21 1.19 1.23 1.27 1.32 1.34 1.32 1.30 1.35 1.44 1.43 1.39 1.39 1.39 1.39 1.38 1.36 1.33 1.30 1.27 1.29 1.32 1.33 1.34 1.31 1.30 1.29 1.27 1.29 1.30 1.30 1.29 1.29
0.43 0.48 0.51 0.51 0.51 0.50 0.49 0.49 0.53 0.57 0.58 0.58 0.57 0.61 0.65 0.68 0.72 0.74 0.71 0.71 0.71 0.70 0.67 0.70 0.72 0.72 0.70 0.68 0.63 0.57 0.51 0.47 0.50 0.55 0.51 0.39 0.34 0.32 0.33 0.33 0.31 0.30 0.43 0.54 0.64 0.76 0.83 0.86 0.93 0.99 1.09 1.19 1.20 1.22 1.25 1.32 1.36 1.39 1.39 1.34 1.35 1.48 1.49 1.46 1.40 1.37 1.37 1.37 1.38 1.44 1.46 1.42 1.36 1.31 1.30 1.33 1.36 1.37 1.40 1.39 1.40 1.42 1.39 1.39 1.40
0.36 0.39 0.44 0.47 0.46 0.45 0.43 0.41 0.41 0.42 0.42 0.44 0.44 0.45 0.47 0.49 0.51 0.53 0.56 0.57 0.57 0.55 0.54 0.54 0.57 0.56 0.50 0.47 0.45 0.43 0.41 0.40 0.42 0.38 0.32 0.31 0.30 0.28 0.28 0.32 0.34 0.35 0.45 0.53 0.58 0.61 0.70 0.75 0.83 0.89 0.94 1.02 1.17 1.25 1.26 1.25 1.31 1.41 1.47 1.46 1.49 1.48 1.43 1.44 1.39 1.41 1.41 1.40 1.37 1.44 1.49 1.47 1.44 1.42 1.40 1.37 1.33 1.34 1.37 1.41 1.42 1.41 1.42 1.43 1.41
0.33 0.32 0.36 0.38 0.38 0.37 0.38 0.40 0.41 0.42 0.42 0.41 0.40 0.39 0.37 0.35 0.34 0.35 0.37 0.39 0.41 0.40 0.40 0.40 0.38 0.35 0.36 0.41 0.41 0.42 0.43 0.45 0.43 0.38 0.37 0.36 0.33 0.28 0.31 0.33 0.27 0.30 0.44 0.52 0.54 0.59 0.63 0.65 0.71 0.77 0.86 0.94 1.01 1.11 1.20 1.24 1.30 1.33 1.38 1.44 1.47 1.46 1.56 1.40 1.41 1.39 1.39 1.38 1.37 1.42 1.43 1.43 1.40 1.40 1.44 1.45 1.45 1.40 1.41 1.47 1.41 1.42 1.44 1.47 1.50
0.33 0.33 0.36 0.38 0.38 0.39 0.40 0.41 0.42 0.42 0.41 0.40 0.39 0.37 0.35 0.32 0.31 0.30 0.32 0.34 0.35 0.34 0.33 0.33 0.34 0.34 0.35 0.33 0.32 0.33 0.34 0.36 0.36 0.36 0.34 0.31 0.28 0.26 0.25 0.26 0.28 0.26 0.36 0.46 0.51 0.49 0.52 0.60 0.67 0.73 0.79 0.84 0.88 0.96 1.05 1.14 1.18 1.21 1.27 1.28 1.27 1.32 1.37 1.38 1.38 1.37 1.35 1.32 1.29 1.29 1.30 1.31 1.32 1.34 1.39 1.41 1.41 1.39 1.41 1.42 1.41 1.41 1.43 1.45 1.47
0.37 0.38 0.41 0.40 0.40 0.41 0.41 0.41 0.41 0.42 0.43 0.42 0.41 0.40 0.39 0.38 0.36 0.34 0.33 0.32 0.31 0.32 0.32 0.32 0.31 0.30 0.29 0.27 0.27 0.29 0.31 0.31 0.30 0.30 0.31 0.29 0.28 0.27 0.24 0.18 0.18 0.22 0.24 0.37 0.41 0.45 0.47 0.53 0.64 0.68 0.72 0.73 0.76 0.82 0.91 1.00 1.10 1.17 1.19 1.21 1.23 1.26 1.24 1.25 1.28 1.31 1.33 1.32 1.30 1.27 1.26 1.26 1.26 1.27 1.26 1.29 1.33 1.37 1.41 1.44 1.43 1.42 1.44 1.46 1.49
0.46 0.48 0.50 0.49 0.48 0.47 0.46 0.46 0.47 0.48 0.49 0.49 0.48 0.47 0.45 0.41 0.39 0.38 0.37 0.38 0.34 0.34 0.36 0.37 0.36 0.35 0.33 0.31 0.27 0.27 0.29 0.28 0.27 0.28 0.29 0.31 0.31 0.29 0.27 0.23 0.16 0.13 0.18 0.22 0.30 0.35 0.44 0.44 0.54 0.63 0.64 0.68 0.72 0.78 0.81 0.87 0.91 0.95 0.99 1.02 1.03 1.03 1.05 1.10 1.16 1.20 1.25 1.28 1.26 1.24 1.23 1.20 1.17 1.18 1.17 1.17 1.18 1.20 1.24 1.30 1.34 1.36 1.41 1.46 1.50
0.51 0.53 0.53 0.53 0.52 0.50 0.48 0.49 0.52 0.53 0.53 0.52 0.51 0.51 0.49 0.46 0.45 0.46 0.46 0.47 0.44 0.41 0.41 0.41 0.43 0.44 0.44 0.42 0.40 0.39 0.40 0.42 0.41 0.39 0.37 0.37 0.36 0.35 0.32 0.28 0.26 0.19 0.14 0.14 0.16 0.22 0.29 0.37 0.37 0.47 0.54 0.60 0.67 0.73 0.74 0.75 0.78 0.82 0.85 0.87 0.88 0.90 0.91 0.93 0.98 1.06 1.15 1.19 1.23 1.23 1.21 1.21 1.16 1.09 1.05 1.01 1.01 1.02 1.05 1.08 1.13 1.19 1.26 1.34 1.39
0.57 0.58 0.57 0.56 0.56 0.54 0.52 0.50 0.51 0.54 0.55 0.55 0.54 0.52 0.50 0.49 0.51 0.53 0.54 0.55 0.52 0.51 0.49 0.47 0.46 0.47 0.49 0.50 0.49 0.47 0.49 0.50 0.50 0.51 0.49 0.48 0.46 0.43 0.41 0.40 0.38 0.29 0.26 0.20 0.18 0.23 0.24 0.29 0.34 0.37 0.45 0.49 0.55 0.59 0.61 0.62 0.64 0.66 0.70 0.74 0.78 0.81 0.84 0.86 0.87 0.90 0.97 1.04 1.11 1.18 1.19 1.18 1.14 1.09 1.05 1.04 1.03 1.03 1.03 1.04 1.04 1.05 1.08 1.11 1.13
0.63 0.63 0.61 0.60 0.59 0.57 0.55 0.54 0.53 0.54 0.56 0.56 0.56 0.55 0.54 0.52 0.52 0.53 0.56 0.56 0.53 0.52 0.53 0.53 0.52 0.51 0.50 0.51 0.53 0.51 0.50 0.51 0.52 0.54 0.54 0.53 0.53 0.52 0.50 0.49 0.48 0.45 0.40 0.36 0.25 0.29 0.32 0.26 0.30 0.34 0.34 0.39 0.43 0.45 0.47 0.49 0.51 0.52 0.53 0.54 0.58 0.63 0.67 0.71 0.74 0.75 0.77 0.81 0.84 0.91 1.00 1.07 1.09 1.04 0.96 0.92 0.92 0.90 0.89 0.91 0.91 0.90 0.91 0.94 1.00
0.66 0.66 0.66 0.65 0.65 0.63 0.61 0.58 0.56 0.58 0.58 0.59 0.59 0.58 0.58 0.57 0.56 0.55 0.56 0.55 0.53 0.53 0.54 0.55 0.53 0.53 0.53 0.51 0.52 0.53 0.52 0.52 0.54 0.56 0.56 0.55 0.54 0.52 0.53 0.52 0.52 0.52 0.49 0.45 0.39 0.35 0.40 0.37 0.35 0.36 0.37 0.36 0.37 0.36 0.36 0.37 0.40 0.42 0.43 0.44 0.45 0.46 0.47 0.49 0.53 0.57 0.60 0.63 0.67 0.70 0.73 0.75 0.78 0.79 0.79 0.79 0.79 0.77 0.77 0.78 0.82 0.85 0.85 0.84 0.85
0.69 0.68 0.67 0.67 0.69 0.70 0.68 0.68 0.67 0.66 0.65 0.66 0.65 0.63 0.61 0.60 0.61 0.60 0.60 0.57 0.55 0.55 0.56 0.56 0.55 0.54 0.54 0.54 0.55 0.55 0.57 0.54 0.54 0.56 0.58 0.57 0.57 0.56 0.56 0.53 0.50 0.50 0.48 0.46 0.42 0.41 0.45 0.49 0.47 0.44 0.42 0.39 0.35 0.36 0.34 0.35 0.35 0.38 0.39 0.39 0.39 0.39 0.39 0.41 0.43 0.44 0.45 0.46 0.48 0.51 0.54 0.57 0.58 0.59 0.61 0.63 0.64 0.63 0.62 0.65 0.71 0.77 0.82 0.83 0.81
0.76 0.75 0.74 0.74 0.73 0.71 0.70 0.70 0.71 0.71 0.71 0.71 0.72 0.71 0.68 0.68 0.69 0.69 0.66 0.65 0.63 0.61 0.60 0.59 0.58 0.58 0.56 0.54 0.54 0.55 0.56 0.54 0.52 0.52 0.56 0.59 0.61 0.60 0.61 0.60 0.57 0.52 0.51 0.45 0.41 0.40 0.41 0.47 0.47 0.50 0.48 0.47 0.39 0.39 0.35 0.35 0.35 0.36 0.35 0.36 0.37 0.37 0.37 0.37 0.38 0.40 0.43 0.45 0.45 0.46 0.46 0.47 0.48 0.49 0.50 0.51 0.52 0.53 0.52 0.55 0.59 0.61 0.65 0.70 0.74
0.81 0.80 0.80 0.81 0.80 0.77 0.76 0.76 0.76 0.75 0.75 0.74 0.76 0.75 0.74 0.72 0.71 0.72 0.71 0.69 0.68 0.68 0.67 0.66 0.64 0.65 0.62 0.59 0.56 0.56 0.56 0.54 0.53 0.53 0.56 0.57 0.60 0.60 0.61 0.62 0.61 0.60 0.57 0.53 0.47 0.42 0.39 0.40 0.46 0.45 0.46 0.46 0.45 0.43 0.42 0.42 0.40 0.38 0.35 0.34 0.35 0.36 0.37 0.38 0.38 0.40 0.41 0.42 0.43 0.45 0.46 0.46 0.47 0.47 0.47 0.47 0.47 0.46 0.47 0.49 0.51 0.53 0.54 0.57 0.61
0.81 0.82 0.82 0.83 0.84 0.84 0.82 0.82 0.82 0.81 0.79 0.80 0.80 0.80 0.79 0.77 0.74 0.73 0.74 0.71 0.71 0.72 0.72 0.71 0.70 0.69 0.66 0.62 0.60 0.59 0.58 0.54 0.53 0.52 0.52 0.54 0.56 0.58 0.59 0.61 0.61 0.59 0.58 0.55 0.51 0.47 0.45 0.40 0.40 0.40 0.44 0.43 0.43 0.44 0.46 0.47 0.45 0.43 0.41 0.39 0.38 0.37 0.37 0.39 0.39 0.39 0.41 0.42 0.43 0.45 0.47 0.48 0.48 0.48 0.49 0.49 0.50 0.49 0.49 0.49 0.48 0.49 0.52 0.54 0.57
0.85 0.84 0.86 0.85 0.84 0.85 0.85 0.84 0.85 0.85 0.85 0.85 0.83 0.82 0.82 0.82 0.81 0.78 0.75 0.74 0.74 0.74 0.73 0.71 0.69 0.69 0.68 0.65 0.63 0.63 0.62 0.60 0.58 0.56 0.55 0.54 0.56 0.58 0.58 0.59 0.60 0.60 0.59 0.56 0.53 0.50 0.45 0.41 0.41 0.40 0.38 0.37 0.39 0.40 0.42 0.42 0.44 0.45 0.44 0.42 0.42 0.41 0.39 0.40 0.39 0.41 0.42 0.43 0.44 0.45 0.46 0.46 0.46 0.47 0.48 0.49 0.50 0.51 0.52 0.52 0.51 0.51 0.53 0.56 0.58
0.91 0.90 0.88 0.87 0.86 0.85 0.85 0.85 0.87 0.88 0.88 0.87 0.85 0.83 0.82 0.83 0.84 0.84 0.78 0.74 0.76 0.75 0.73 0.72 0.71 0.70 0.69 0.68 0.66 0.66 0.67 0.66 0.65 0.63 0.61 0.59 0.59 0.58 0.58 0.59 0.59 0.58 0.56 0.55 0.53 0.49 0.44 0.41 0.38 0.38 0.36 0.32 0.31 0.33 0.36 0.39 0.39 0.40 0.42 0.43 0.43 0.43 0.43 0.41 0.41 0.41 0.44 0.44 0.43 0.42 0.41 0.40 0.40 0.41 0.44 0.47 0.48 0.49 0.52 0.56 0.58 0.60 0.59 0.59 0.60
1.03 1.00 0.97 0.92 0.92 0.88 0.86 0.86 0.85 0.85 0.85 0.86 0.86 0.85 0.83 0.82 0.84 0.85 0.84 0.77 0.75 0.75 0.75 0.75 0.74 0.71 0.69 0.69 0.67 0.67 0.67 0.67 0.66 0.64 0.63 0.61 0.60 0.58 0.57 0.56 0.56 0.55 0.53 0.51 0.49 0.46 0.44 0.40 0.38 0.37 0.36 0.36 0.33 0.29 0.32 0.36 0.36 0.37 0.38 0.39 0.40 0.44 0.44 0.42 0.40 0.42 0.46 0.44 0.43 0.41 0.40 0.39 0.40 0.41 0.41 0.41 0.42 0.44 0.45 0.47 0.52 0.56 0.59 0.60 0.61
1.02 1.02 1.06 1.05 1.04 0.95 0.90 0.86 0.84 0.83 0.83 0.84 0.85 0.83 0.84 0.85 0.84 0.85 0.85 0.81 0.76 0.75 0.75 0.76 0.76 0.74 0.72 0.71 0.69 0.69 0.68 0.66 0.63 0.61 0.60 0.57 0.57 0.55 0.55 0.55 0.54 0.53 0.51 0.49 0.47 0.44 0.42 0.40 0.38 0.38 0.38 0.36 0.35 0.33 0.32 0.31 0.29 0.30 0.34 0.36 0.35 0.37 0.40 0.42 0.41 0.40 0.45 0.43 0.40 0.39 0.38 0.37 0.39 0.42 0.43 0.44 0.44 0.44 0.44 0.46 0.48 0.52 0.57 0.62 0.66
1.00 0.97 0.94 0.92 0.92 0.96 0.95 0.89 0.84 0.83 0.81 0.80 0.78 0.76 0.75 0.78 0.81 0.80 0.82 0.82 0.79 0.76 0.76 0.77 0.78 0.77 0.75 0.74 0.73 0.71 0.71 0.68 0.65 0.62 0.60 0.59 0.57 0.56 0.57 0.57 0.56 0.54 0.53 0.50 0.47 0.45 0.44 0.41 0.38 0.38 0.37 0.36 0.34 0.32 0.31 0.30 0.29 0.30 0.34 0.35 0.34 0.36 0.38 0.38 0.40 0.42 0.43 0.40 0.40 0.41 0.41 0.41 0.39 0.41 0.43 0.42 0.44 0.45 0.45 0.46 0.48 0.50 0.54 0.60 0.66
0.94 0.93 0.91 0.90 0.90 0.86 0.83 0.85 0.84 0.82 0.80 0.78 0.76 0.75 0.77 0.78 0.78 0.77 0.77 0.79 0.81 0.79 0.76 0.75 0.76 0.77 0.77 0.77 0.76 0.75 0.73 0.70 0.67 0.63 0.59 0.57 0.56 0.56 0.56 0.56 0.58 0.57 0.54 0.50 0.47 0.44 0.42 0.40 0.39 0.38 0.37 0.37 0.37 0.36 0.33 0.32 0.34 0.35 0.32 0.32 0.30 0.33 0.35 0.35 0.36 0.39 0.44 0.41 0.38 0.37 0.40 0.42 0.40 0.39 0.42 0.40 0.41 0.42 0.42 0.44 0.47 0.50 0.51 0.55 0.62
0.85 0.91 0.89 0.85 0.83 0.80 0.76 0.75 0.76 0.78 0.80 0.81 0.80 0.80 0.80 0.82 0.83 0.82 0.81 0.80 0.82 0.81 0.78 0.76 0.75 0.77 0.78 0.78 0.77 0.75 0.73 0.71 0.69 0.66 0.62 0.59 0.57 0.54 0.53 0.55 0.57 0.56 0.54 0.50 0.47 0.44 0.41 0.40 0.40 0.39 0.38 0.38 0.39 0.38 0.35 0.34 0.34 0.33 0.32 0.31 0.31 0.30 0.29 0.29 0.29 0.36 0.43 0.41 0.41 0.39 0.36 0.39 0.39 0.35 0.34 0.37 0.40 0.40 0.42 0.44 0.46 0.47 0.50 0.53 0.56
0.82 0.81 0.74 0.69 0.68 0.69 0.71 0.71 0.72 0.74 0.76 0.78 0.77 0.77 0.77 0.78 0.79 0.80 0.80 0.79 0.79 0.78 0.77 0.76 0.79 0.81 0.80 0.79 0.77 0.75 0.75 0.74 0.72 0.70 0.64 0.61 0.59 0.54 0.52 0.51 0.52 0.54 0.56 0.53 0.49 0.45 0.43 0.40 0.39 0.38 0.38 0.37 0.38 0.38 0.37 0.37 0.35 0.34 0.33 0.32 0.30 0.29 0.28 0.27 0.28 0.27 0.35 0.40 0.37 0.36 0.37 0.41 0.40 0.36 0.34 0.35 0.35 0.35 0.38 0.42 0.45 0.46 0.47 0.49 0.53
0.62 0.59 0.57 0.58 0.61 0.67 0.70 0.70 0.71 0.74 0.75 0.74 0.74 0.77 0.79 0.80 0.82 0.83 0.82 0.80 0.77 0.77 0.78 0.81 0.80 0.79 0.78 0.77 0.74 0.75 0.73 0.76 0.76 0.72 0.68 0.64 0.61 0.56 0.53 0.52 0.52 0.54 0.55 0.55 0.54 0.50 0.47 0.44 0.41 0.40 0.39 0.38 0.37 0.38 0.39 0.38 0.38 0.34 0.33 0.31 0.31 0.31 0.30 0.28 0.28 0.29 0.31 0.35 0.33 0.32 0.33 0.39 0.43 0.40 0.37 0.37 0.38 0.39 0.40 0.42 0.43 0.45 0.48 0.49 0.52
0.55 0.58 0.63 0.65 0.66 0.66 0.67 0.66 0.66 0.67 0.69 0.70 0.70 0.69 0.70 0.71 0.72 0.73 0.75 0.75 0.74 0.77 0.81 0.82 0.82 0.82 0.80 0.76 0.74 0.72 0.75 0.75 0.72 0.68 0.64 0.62 0.60 0.57 0.56 0.54 0.53 0.54 0.55 0.55 0.53 0.51 0.50 0.47 0.44 0.40 0.41 0.41 0.39 0.40 0.41 0.42 0.38 0.35 0.33 0.30 0.31 0.29 0.28 0.28 0.30 0.31 0.33 0.36 0.32 0.31 0.29 0.33 0.38 0.39 0.39 0.42 0.44 0.43 0.43 0.45 0.45 0.45 0.47 0.50 0.53
0.55 0.53 0.53 0.53 0.56 0.59 0.59 0.58 0.55 0.53 0.54 0.54 0.52 0.50 0.48 0.49 0.52 0.56 0.60 0.64 0.66 0.70 0.75 0.78 0.82 0.82 0.80 0.78 0.76 0.73 0.73 0.74 0.72 0.69 0.67 0.64 0.61 0.59 0.58 0.56 0.54 0.52 0.53 0.54 0.53 0.51 0.49 0.47 0.45 0.43 0.43 0.44 0.43 0.42 0.42 0.42 0.40 0.39 0.37 0.34 0.33 0.32 0.31 0.32 0.30 0.30 0.31 0.34 0.34 0.32 0.26 0.30 0.35 0.34 0.35 0.39 0.44 0.45 0.46 0.48 0.48 0.48 0.48 0.50 0.53
0.52 0.53 0.53 0.52 0.50 0.50 0.52 0.52 0.49 0.47 0.49 0.49 0.49 0.47 0.45 0.44 0.46 0.50 0.54 0.58 0.61 0.62 0.66 0.71 0.77 0.80 0.82 0.77 0.75 0.77 0.76 0.74 0.73 0.69 0.65 0.65 0.64 0.62 0.59 0.55 0.53 0.53 0.54 0.57 0.56 0.54 0.52 0.50 0.48 0.46 0.45 0.45 0.44 0.43 0.42 0.41 0.40 0.39 0.38 0.37 0.35 0.32 0.29 0.27 0.25 0.27 0.27 0.31 0.33 0.31 0.29 0.29 0.34 0.32 0.32 0.38 0.40 0.41 0.47 0.51 0.53 0.53 0.52 0.53 0.54
0.40 0.41 0.43 0.43 0.45 0.45 0.46 0.47 0.47 0.48 0.49 0.49 0.48 0.45 0.43 0.42 0.42 0.44 0.46 0.51 0.56 0.59 0.60 0.63 0.65 0.66 0.68 0.69 0.71 0.70 0.67 0.66 0.66 0.66 0.66 0.65 0.62 0.59 0.56 0.53 0.50 0.49 0.50 0.53 0.55 0.54 0.52 0.50 0.48 0.47 0.45 0.44 0.43 0.42 0.42 0.41 0.39 0.38 0.36 0.32 0.30 0.31 0.27 0.24 0.24 0.25 0.25 0.29 0.32 0.33 0.30 0.27 0.31 0.33 0.33 0.36 0.38 0.39 0.43 0.51 0.57 0.58 0.57 0.57 0.57
0.40 0.42 0.45 0.48 0.49 0.49 0.48 0.49 0.50 0.49 0.50 0.51 0.50 0.48 0.47 0.46 0.46 0.45 0.45 0.45 0.46 0.48 0.51 0.54 0.55 0.57 0.60 0.64 0.65 0.66 0.66 0.64 0.63 0.61 0.60 0.59 0.55 0.53 0.52 0.50 0.48 0.48 0.50 0.53 0.52 0.51 0.49 0.47 0.46 0.44 0.43 0.41 0.40 0.39 0.39 0.38 0.37 0.36 0.32 0.28 0.30 0.30 0.27 0.26 0.23 0.25 0.26 0.29 0.30 0.33 0.29 0.29 0.34 0.34 0.32 0.34 0.36 0.37 0.44 0.50 0.54 0.58 0.62 0.61 0.60
0.42 0.44 0.46 0.48 0.51 0.53 0.53 0.53 0.53 0.52 0.51 0.51 0.51 0.51 0.49 0.48 0.48 0.48 0.48 0.47 0.46 0.46 0.48 0.51 0.53 0.54 0.55 0.59 0.61 0.61 0.59 0.57 0.57 0.57 0.57 0.54 0.50 0.49 0.50 0.48 0.47 0.49 0.51 0.51 0.48 0.46 0.44 0.42 0.40 0.39 0.38 0.37 0.37 0.36 0.36 0.35 0.35 0.34 0.33 0.32 0.32 0.30 0.28 0.28 0.27 0.27 0.25 0.27 0.32 0.37 0.30 0.29 0.31 0.32 0.32 0.29 0.28 0.34 0.40 0.49 0.51 0.52 0.53 0.57 0.59
Wind_Speed
12 11 11 10 10 10 10 10 10 10 10 10 10 10 10 11 11 11 11 11 11 12 12 13 13 14 14 15 16 16 17 17 19 19 19 20 20 21 20 19 19 19 19 20 20 20 20 20 20 20 19 19 18 18 17 16 15 14 13 13 12 11 10 10 9 8 8 7 6 6 5 5 4 4 3 3 3 2 3 3 3 3 4 4 4
12 12 11 11 11 11 11 10 10 10 10 10 10 10 10 11 11 12 12 12 11 11 11 12 12 13 13 14 15 16 16 16 17 18 19 19 20 20 20 20 19 20 20 20 20 20 20 20 20 20 20 20 20 19 18 18 17 16 15 14 13 13 12 11 11 10 9 9 8 7 7 6 6 5 5 4 4 4 4 3 3 3 3 3 4
12 12 11 10 11 11 11 11 10 9 10 10 10 10 10 10 11 11 11 11 11 11 11 12 12 12 13 13 14 15 16 17 17 18 18 19 19 20 20 20 20 20 20 20 20 21 21 21 21 21 21 21 21 20 20 19 18 18 17 16 15 14 14 13 12 11 11 10 9 9 8 8 7 7 6 6 5 5 5 4 4 4 4 4 3
12 11 11 10 10 10 10 10 9 8 9 9 10 9 9 10 11 11 11 11 11 11 11 12 12 12 13 13 13 14 15 16 17 18 18 19 19 19 19 19 19 19 20 20 20 21 21 21 21 21 21 21 21 21 20 20 20 19 18 17 17 16 15 15 14 13 12 12 11 10 10 10 9 9 8 8 7 6 6 6 6 5 5 4 4
13 12 11 11 11 10 10 10 9 9 9 9 9 9 8 9 10 10 10 11 12 12 11 11 12 12 13 13 13 14 14 15 16 17 19 19 19 19 19 19 19 19 19 20 20 20 20 21 22 22 22 22 21 21 21 21 20 20 19 18 18 18 17 16 15 15 14 13 12 12 11 11 11 10 10 9 9 8 8 7 7 7 6 6 5
12 11 11 11 11 11 11 10 10 10 10 10 9 9 9 9 9 10 10 10 11 11 11 11 12 12 13 13 14 14 14 15 15 16 18 19 20 20 20 20 19 19 19 19 20 20 20 21 21 22 22 22 22 22 22 21 21 21 20 19 19 18 18 18 17 16 15 15 14 14 13 12 12 12 12 11 10 10 9 9 8 8 8 7 7
10 9 10 11 11 11 10 10 10 11 10 10 10 9 9 9 9 10 10 10 10 10 11 12 12 12 13 13 14 14 14 14 15 15 16 17 19 20 21 21 20 20 20 19 20 20 20 21 21 21 22 22 22 22 22 22 22 22 21 20 20 19 19 18 18 18 17 17 16 15 15 14 14 14 13 13 12 12 11 10 10 9 9 9 8
10 9 9 11 11 11 11 11 11 11 11 11 11 10 10 9 9 9 10 10 10 11 11 12 12 13 13 13 14 14 14 14 14 14 15 15 16 18 20 21 21 21 20 20 20 21 21 21 21 21 21 22 22 22 23 23 23 22 22 21 21 20 20 19 19 19 19 18 18 17 17 16 16 15 15 15 14 14 13 12 11 11 10 10 9
11 10 10 11 11 11 11 11 11 11 11 11 12 11 11 10 10 9 10 10 10 11 11 11 12 12 13 13 13 14 14 14 13 13 14 14 15 16 17 19 21 21 21 21 21 21 22 22 22 22 22 22 22 22 23 23 23 23 23 22 22 21 21 20 20 20 19 19 19 18 18 18 17 17 16 16 16 15 14 14 13 12 12 11 11
11 10 11 12 12 12 12 12 12 12 12 12 12 12 12 11 11 10 11 11 11 11 11 11 11 12 13 13 12 13 14 14 14 14 14 14 15 16 16 18 19 21 22 22 22 21 21 22 23 23 23 23 22 23 23 23 24 24 24 23 23 22 22 21 21 21 21 20 19 19 19 18 18 18 18 17 17 16 16 15 14 14 13 13 12
11 11 11 12 12 12 12 12 13 13 12 12 12 13 12 12 12 11 11 11 11 11 11 11 10 10 11 12 11 11 12 13 14 14 14 14 15 15 16 17 18 20 21 22 23 22 22 22 23 23 24 24 23 23 23 23 24 24 24 24 24 24 23 22 22 22 21 21 21 20 20 19 19 19 19 18 18 17 17 16 16 15 14 14 13
10 10 11 11 12 12 13 13 13 13 13 13 13 14 13 13 12 12 12 11 11 11 11 10 9 8 9 10 10 9 10 11 12 13 13 14 15 15 16 16 17 19 20 21 22 22 23 23 23 23 24 24 24 24 24 24 24 24 24 24 25 24 24 24 23 22 22 22 22 21 21 20 20 19 19 18 18 18 17 17 16 16 15 15 15
9 9 10 11 12 12 12 12 13 14 14 13 14 14 14 14 14 13 12 12 12 11 11 10 9 8 8 8 10 10 10 11 11 12 12 13 14 15 16 16 16 17 19 20 21 22 23 23 24 24 24 24 24 25 25 25 25 25 24 24 25 25 25 24 24 23 23 22 22 22 21 21 20 19 19 18 18 18 17 17 17 16 16 16 16
9 9 10 10 11 11 12 12 13 13 13 13 13 13 14 14 14 13 13 12 12 12 11 11 10 10 9 9 10 10 11 11 11 12 12 13 13 14 15 16 17 16 16 18 19 21 22 23 24 25 25 25 25 25 25 25 25 25 25 25 25 25 26 25 25 24 23 23 23 22 21 21 20 19 19 19 18 18 18 17 16 16 16 16 16
9 9 10 10 11 11 12 12 12 13 13 13 13 13 13 13 14 14 13 13 12 12 12 12 11 11 10 10 10 10 11 11 11 12 12 12 13 14 15 16 17 16 16 16 17 19 20 21 23 24 25 25 26 26 25 25 25 26 26 25 25 25 26 26 25 25 24 24 23 22 22 21 21 20 20 19 19 19 18 17 17 17 17 16 16
8 9 9 10 10 10 11 11 11 12 12 13 13 13 13 13 13 13 13 13 13 13 13 13 12 11 10 11 11 10 11 11 11 12 12 12 12 13 14 15 16 16 16 16 17 18 19 19 21 23 24 24 25 25 25 25 26 26 26 26 26 26 26 26 25 25 25 25 24 23 22 22 21 21 20 20 19 19 18 18 17 17 17 17 17
6 6 7 8 8 8 8 9 9 10 10 11 11 12 12 12 12 12 13 14 13 13 13 13 13 12 11 11 11 11 12 12 12 12 12 12 12 12 13 14 14 15 15 16 17 18 19 19 20 21 23 23 24 24 25 25 25 26 27 27 27 27 26 26 26 25 25 25 25 24 24 23 22 22 21 20 20 19 19 18 18 18 17 17 17
5 5 5 5 6 6 6 7 8 8 8 8 9 9 10 11 11 12 12 13 13 13 13 13 13 13 12 12 11 12 12 12 12 12 12 12 13 13 13 13 13 14 14 15 16 17 18 19 20 21 22 23 23 25 25 25 25 26 27 27 27 27 28 27 27 26 26 25 25 25 25 24 23 22 22 21 20 20 19 19 18 18 18 17 17
5 5 5 4 4 4 4 5 6 6 6 7 7 7 8 9 10 11 11 12 12 13 13 13 13 13 13 13 12 12 12 12 12 13 13 13 13 13 13 12 12 12 13 13 14 15 16 18 20 21 22 22 22 23 24 25 25 26 27 27 27 28 28 28 28 27 27 26 26 25 25 25 24 23 22 22 21 21 20 20 19 19 18 18 18
5 5 5 4 4 3 3 3 4 5 5 5 5 6 6 7 8 9 10 10 11 12 13 13 13 13 13 12 12 12 11 12 12 12 12 12 12 12 12 11 11 12 12 12 13 13 14 15 17 19 20 21 22 23 23 23 24 25 26 27 27 28 28 29 28 28 28 27 27 27 26 26 25 25 24 23 23 22 22 22 21 21 20 20 19
4 4 4 4 4 3 3 3 3 3 3 3 3 4 4 5 6 7 8 8 9 10 11 11 12 12 11 11 11 11 11 11 11 11 10 10 11 11 11 11 11 11 12 12 13 13 13 14 15 16 18 20 21 22 22 21 22 24 24 25 25 27 28 28 29 29 29 28 28 28 28 28 27 27 26 26 25 25 24 24 23 23 22 22 21
3 3 3 3 3 3 3 3 3 3 3 3 3 3 3 3 4 4 5 5 6 7 8 9 9 9 10 10 10 10 10 10 10 10 9 10 10 11 11 11 11 12 12 12 12 12 12 12 13 14 15 17 18 20 21 21 22 22 23 23 23 25 26 27 28 29 29 29 29 29 29 29 28 28 28 28 28 27 27 26 26 25 24 24 23
3 3 3 3 3 3 3 3 3 3 3 3 3 3 3 3 3 4 4 4 4 5 6 6 7 7 8 8 8 8 9 9 9 9 9 10 10 11 11 11 10 11 10 10 10 11 10 10 10 11 12 13 15 18 20 20 21 22 23 23 23 24 24 24 26 27 28 28 28 28 28 29 29 29 29 29 29 29 29 29 28 27 26 26 25
3 3 3 3 3 2 2 2 2 2 2 1 2 2 2 2 3 3 4 4 4 4 5 5 6 6 7 7 7 7 8 8 8 9 9 9 9 10 10 10 9 9 9 8 8 8 8 9 8 8 8 9 11 14 17 18 19 20 21 22 22 22 22 22 23 24 25 26 25 26 27 28 29 30 30 30 30 30 30 30 29 28 28 28 27
3 3 3 3 3 2 2 2 2 2 2 2 2 2 1 1 2 2 2 3 3 4 4 4 5 5 5 6 6 6 7 7 7 7 7 8 8 9 10 10 10 10 9 8 8 8 8 8 8 8 8 7 8 10 12 15 17 18 18 20 20 20 20 21 22 23 24 25 25 25 26 27 28 29 29 30 30 30 30 30 29 29 28 28 28
3 3 3 3 3 3 3 3 2 2 2 2 2 2 2 2 2 1 1 1 1 2 2 3 3 3 3 4 4 4 5 5 5 5 6 6 6 7 8 9 9 9 9 9 8 8 8 8 8 8 8 8 8 9 10 11 13 15 17 18 19 20 20 21 22 23 24 25 25 26 26 26 27 27 27 27 28 28 29 29 28 29 29 29 29
4 4 4 4 3 3 3 3 3 3 3 3 3 3 2 2 2 2 1 1 1 0 1 1 1 1 2 2 2 2 3 3 3 4 4 4 4 5 5 6 7 8 8 9 8 8 8 8 8 8 8 9 9 10 10 10 11 12 14 16 17 19 19 20 21 23 24 25 26 26 27 27 27 27 27 27 27 27 28 28 28 29 29 30 29
4 4 4 4 3 3 3 3 3 3 3 3 3 2 2 2 1 1 1 1 1 1 0 0 0 1 1 1 1 1 2 2 2 2 3 3 3 4 4 4 5 6 7 7 8 8 8 8 9 9 9 10 10 10 11 11 11 12 13 14 15 16 18 18 19 21 23 24 25 26 27 27 27 27 27 27 27 27 27 28 28 29 30 30 30
5 4 4 4 3 3 3 3 3 2 2 2 2 1 1 0 0 0 0 1 1 1 1 1 1 1 1 1 2 2 2 2 2 2 3 3 3 3 4 4 4 5 6 6 7 8 8 8 9 9 10 10 10 11 11 12 12 13 13 14 15 16 17 17 18 19 21 23 24 25 26 27 27 27 27 27 27 27 27 27 27 28 29 30 30
6 5 4 4 3 3 3 3 3 2 2 2 2 2 2 2 2 2 2 2 2 2 2 2 2 2 2 2 3 3 3 3 3 4 4 4 4 4 4 4 4 5 6 7 7 8 8 9 9 10 11 11 11 12 12 12 13 13 14 14 15 16 16 17 17 18 19 21 22 24 26 27 27 28 27 27 27 27 27 27 27 27 27 28 29
7 7 6 5 5 4 4 4 4 4 4 4 4 4 4 4 4 4 4 4 4 4 4 4 4 4 4 4 4 4 4 4 4 5 5 5 5 5 5 5 6 6 6 7 8 9 9 10 10 11 11 12 12 13 13 13 13 13 14 14 15 16 16 17 17 17 18 19 20 22 23 25 26 27 27 27 27 27 27 27 27 27 27 28 28
10 9 9 8 7 6 6 6 6 5 5 5 6 6 6 6 6 6 6 6 5 6 6 6 6 6 6 6 6 5 5 5 5 5 6 6 6 6 6 7 7 7 8 8 10 10 11 11 12 12 12 13 13 13 14 14 14 14 14 14 15 15 16 16 16 17 17 18 19 20 21 22 24 25 26 27 27 27 27 27 28 28 28 28 28
12 11 11 10 10 9 8 8 8 7 7 7 7 7 7 8 8 9 8 8 8 8 8 8 8 8 7 8 8 8 7 6 6 6 7 7 7 7 7 8 8 8 9 10 11 12 12 12 13 13 14 14 14 14 14 15 15 15 15 15 15 15 15 16 16 16 17 17 18 19 19 20 22 23 24 26 27 27 28 28 28 28 28 28 27
13 13 12 11 11 10 10 10 10 9 9 8 8 8 8 9 9 10 10 10 10 10 10 10 10 10 9 9 10 10 9 8 8 8 8 8 8 9 9 9 9 10 10 11 11 12 13 14 14 14 15 15 15 15 15 16 16 16 16 16 16 16 16 16 16 16 17 17 17 18 19 19 20 22 23 24 25 26 27 27 27 28 28 28 28
15 14 13 12 12 11 11 11 11 11 11 10 10 10 11 11 11 11 11 11 12 12 12 12 12 12 12 11 12 11 11 11 10 10 10 10 10 10 10 10 10 11 12 12 13 13 14 15 15 16 16 16 16 17 17 17 17 17 17 17 17 17 17 17 17 17 18 18 18 18 19 19 20 21 22 23 24 25 26 27 27 27 27 28 28
16 16 15 14 14 13 13 13 13 13 12 12 12 13 13 13 13 13 14 14 14 13 13 13 14 14 14 14 14 14 13 13 13 12 12 12 12 12 12 12 12 13 14 14 14 15 16 16 17 17 17 17 17 18 18 18 19 18 18 18 18 18 18 18 18 19 19 19 19 19 19 20 20 20 21 22 23 24 25 26 26 27 27 27 27
18 17 17 16 16 16 15 15 15 15 15 15 16 16 16 17 17 17 16 17 17 16 16 15 15 15 15 15 15 15 15 15 15 14 14 13 14 14 14 14 15 15 16 16 16 17 17 18 19 18 18 18 18 18 19 19 20 20 20 20 20 20 20 20 20 20 20 20 20 20 20 21 21 21 22 22 22 23 24 25 25 26 26 26 26
19 18 18 18 18 18 18 18 17 17 17 18 19 19 20 20 21 21 20 19 19 19 18 18 17 17 17 17 17 17 17 16 16 16 16 16 16 16 16 16 17 17 18 18 18 19 19 20 20 20 20 20 20 20 20 20 20 21 21 22 22 22 22 22 22 22 22 22 22 22 22 22 23 23 23 23 23 23 23 24 24 25 25 26 26
19 18 18 19 19 19 19 20 20 20 20 20 20 21 21 21 22 23 22 21 21 21 20 20 19 19 19 19 19 18 18 18 18 18 18 18 18 17 17 18 18 19 19 20 20 20 20 20 20 21 21 21 21 21 21 21 21 21 22 23 23 24 24 24 25 25 25 24 25 25 25 25 25 25 25 25 25 25 24 24 24 25 26 26 27
19 18 18 18 18 19 20 21 21 21 21 22 22 22 22 21 20 21 22 23 23 22 22 21 21 21 21 20 20 20 20 20 20 20 19 19 19 19 19 20 20 20 20 21 21 21 21 21 21 21 22 23 23 23 23 23 23 23 23 24 24 25 26 26 26 27 27 27 27 27 27 27 27 27 26 26 26 26 26 26 26 26 26 27 27
19 20 20 20 20 21 21 21 22 22 23 23 24 23 23 21 21 21 22 23 25 25 25 25 24 23 23 23 22 22 22 22 22 22 22 22 22 22 22 22 22 22 22 22 22 22 22 22 22 23 23 24 24 25 25 25 25 25 25 25 26 26 27 28 28 28 28 28 28 28 28 29 29 29 29 28 29 28 28 28 27 28 27 28 28
21 21 22 22 22 23 23 23 24 24 25 25 25 24 24 23 23 23 23 24 26 27 28 28 28 26 25 25 24 24 24 24 25 25 24 24 24 24 24 24 24 24 24 24 24 24 24 24 24 24 25 26 26 26 26 27 27 27 27 27 28 28 28 29 29 29 29 30 30 30 30 30 30 30 30 30 31 31 31 30 30 30 29 29 29
22 22 21 22 23 23 24 24 25 25 25 25 25 25 25 25 25 25 25 26 27 28 29 30 30 29 28 27 27 27 27 27 27 27 26 26 26 26 27 27 27 27 26 26 27 26 26 26 26 26 27 28 28 28 28 28 28 29 29 29 29 29 29 29 29 30 30 31 32 32 32 32 32 32 32 32 33 33 33 33 32 32 31 31 31
22 22 22 23 23 24 24 24 24 24 25 25 25 26 27 27 27 27 28 28 29 30 30 30 30 30 29 29 29 29 29 28 29 29 28 28 28 28 29 29 29 29 29 29 28 28 28 29 29 29 29 30 30 31 31 31 30 31 31 31 31 31 31 31 31 31 32 33 33 34 34 33 34 34 34 34 34 35 34 34 34 34 33 33 32
23 24 24 25 25 25 25 25 26 26 26 27 28 28 29 29 29 30 30 30 31 32 32 32 31 31 31 31 30 30 29 29 29 30 30 30 31 30 30 31 31 31 31 31 31 30 31 31 32 32 32 32 33 32 32 33 33 33 33 33 34 34 33 34 34 34 34 35 35 35 35 33 34 35 35 34 35 35 35 35 35 35 35 34 34
24 24 25 26 26 26 26 27 27 27 28 29 29 30 30 31 31 31 31 31 32 32 33 33 33 33 33 32 32 31 31 30 31 31 31 31 31 31 32 32 33 33 33 32 32 32 33 33 34 34 34 35 35 35 34 34 35 35 35 36 36 36 37 37 37 36 36 36 36 36 36 34 34 35 35 35 35 36 36 35 36 36 35 35 34
25 25 25 26 26 26 26 26 27 27 28 29 29 29 30 30 31 31 31 31 31 32 32 33 33 33 32 32 31 31 31 32 32 32 32 32 32 33 33 34 34 34 33 33 33 34 34 35 36 36 36 36 37 37 36 36 37 37 37 38 38 39 39 39 39 38 38 37 37 37 37 36 35 36 37 36 36 36 36 36 36 36 35 35 34
26 27 27 27 27 27 27 27 27 27 28 28 28 28 28 28 29 30 30 30 30 31 31 32 32 32 32 32 32 32 32 33 33 34 34 34 34 35 35 35 35 34 34 34 34 35 36 36 37 37 38 38 38 39 39 39 39 40 40 40 40 40 41 41 41 40 39 38 38 38 39 38 37 37 37 36 36 36 36 36 36 36 35 35 34
27 28 28 28 28 28 28 28 28 28 28 28 27 27 27 27 27 28 28 28 28 29 30 31 31 31 32 32 33 32 33 33 34 34 34 35 35 36 36 36 35 35 35 35 36 36 36 37 37 38 39 39 40 41 41 41 42 42 42 42 42 42 42 42 42 41 40 40 39 39 40 40 38 37 37 36 36 36 35 35 35 35 35 34 34
28 28 28 28 28 28 28 28 28 28 28 28 28 27 26 26 26 27 27 27 27 28 28 29 30 30 31 31 32 32 33 34 34 34 34 35 36 36 36 36 35 35 36 36 36 37 38 38 39 40 41 41 42 42 43 43 43 43 43 42 42 42 42 42 42 42 41 40 39 39 40 39 38 37 38 37 37 36 36 36 35 35 35 35 35
29 29 29 29 29 29 29 29 29 29 29 29 28 28 27 27 27 27 28 28 28 28 29 30 30 31 31 32 32 32 33 34 34 34 35 35 36 36 36 36 36 37 37 37 37 38 39 39 40 41 42 42 43 43 42 42 42 42 41 41 41 42 42 42 42 41 41 39 38 38 39 39 39 39 39 38 38 37 37 36 36 36 36 36 36
Wind_Direction
244 243 246 244 240 237 237 235 231 232 235 236 235 235 234 231 227 226 227 229 230 231 230 228 229 233 235 234 235 235 235 233 230 231 232 232 232 231 232 234 235 238 238 235 234 235 235 234 235 236 237 237 237 237 237 239 239 239 238 238 238 238 238 239 241 243 246 250 253 254 257 261 266 272 279 287 297 311 326 340 354 3 9 13 16
244 244 245 244 239 236 236 234 234 236 238 239 235 234 236 234 231 228 228 230 231 230 229 230 231 234 234 233 236 238 238 236 233 232 232 232 233 232 232 233 235 238 238 236 235 236 237 237 237 238 238 238 238 238 238 239 240 241 240 240 240 240 239 240 241 242 246 249 253 256 257 260 264 270 275 279 283 288 296 306 318 332 343 351 358
243 243 244 243 238 239 238 233 234 235 236 239 234 232 235 236 232 226 226 229 231 230 230 233 233 233 233 235 240 242 241 239 236 235 232 232 234 234 233 234 235 237 238 238 237 237 238 238 238 239 239 239 239 239 240 240 241 242 241 240 240 240 241 241 241 243 245 248 252 255 258 260 264 269 273 276 279 282 284 289 294 304 314 323 334
241 240 241 240 234 233 229 222 225 228 230 234 232 231 234 235 232 227 228 230 231 232 232 233 234 234 235 239 243 244 243 241 239 237 234 232 233 235 235 234 236 237 238 239 238 238 239 239 239 239 240 240 240 240 241 241 241 242 241 241 240 240 240 241 242 243 245 248 250 253 257 260 264 267 271 274 276 278 279 281 283 288 294 300 309
238 238 240 238 231 227 224 220 223 227 230 232 230 231 233 234 232 230 231 231 230 232 234 235 237 238 240 242 243 242 243 243 241 239 236 234 233 235 236 235 236 237 238 239 239 240 239 240 240 239 240 240 241 241 241 242 242 242 242 242 242 241 240 240 241 243 245 247 249 252 255 259 263 266 270 272 274 275 277 278 279 280 283 286 291
235 237 239 236 233 230 228 225 225 229 232 232 230 233 236 236 235 233 232 230 229 232 235 237 241 244 243 243 243 243 243 243 243 241 238 236 234 235 237 238 237 238 239 240 241 241 240 240 240 239 239 239 240 240 241 242 242 242 242 242 243 242 241 241 241 242 244 246 249 252 255 258 262 265 268 270 272 274 275 277 278 278 278 279 281
238 239 235 232 232 231 230 230 230 232 236 236 234 236 238 238 236 234 232 231 231 235 239 243 247 248 246 245 244 244 244 243 241 241 240 238 237 236 237 238 239 240 241 242 243 243 242 240 240 239 239 239 240 240 241 242 242 242 242 242 243 243 242 242 242 243 245 247 249 252 255 258 261 264 267 269 271 272 273 275 275 275 275 275 275
242 241 237 233 233 233 232 234 233 234 239 241 240 241 242 241 239 236 234 234 237 241 245 249 250 250 249 247 245 244 243 240 239 239 239 239 239 238 238 238 239 240 242 243 244 244 243 242 242 241 240 240 240 240 240 241 242 242 242 242 242 243 243 243 243 244 246 248 250 253 256 259 261 263 265 267 269 269 271 272 272 272 272 272 272
243 240 239 236 238 240 237 237 237 239 242 243 243 245 246 245 242 241 239 239 242 245 249 250 250 251 250 247 247 245 238 236 237 239 239 239 240 241 241 239 239 240 241 243 245 245 244 243 243 243 242 242 242 241 241 241 242 242 242 242 242 242 243 244 244 245 247 249 251 254 257 258 260 262 263 265 267 268 269 269 269 269 268 268 268
243 238 237 238 242 243 242 242 242 242 245 245 245 246 248 249 246 245 245 244 246 248 250 249 250 253 251 248 248 244 237 237 240 242 242 241 242 244 244 243 242 241 242 243 244 245 244 244 244 244 244 243 243 242 242 241 241 241 241 242 242 242 243 244 245 246 247 249 252 254 256 258 259 261 262 264 266 267 268 268 267 266 265 265 265
239 236 236 238 242 244 245 245 244 245 247 247 247 247 248 250 248 247 248 248 249 249 248 247 250 254 250 244 243 240 236 238 242 245 246 245 246 247 247 247 247 246 245 244 244 244 244 244 245 245 245 244 243 244 243 243 242 242 241 241 242 243 244 244 245 247 248 250 252 254 255 257 259 261 262 263 264 266 267 267 266 265 263 263 263
240 239 239 240 243 245 246 245 245 247 247 247 248 248 248 250 249 247 247 248 248 246 243 242 246 251 247 238 235 237 238 239 243 246 248 249 250 251 251 251 251 250 248 246 245 245 244 244 245 245 246 245 244 244 245 244 243 243 243 242 243 243 244 245 245 247 249 250 251 252 254 256 258 259 260 261 263 265 266 267 266 264 263 262 261
242 243 244 245 245 246 247 247 248 247 247 247 247 248 249 249 248 247 246 247 247 243 240 239 241 244 243 238 237 241 244 245 247 250 251 253 255 255 255 254 254 253 251 248 246 246 245 245 244 244 245 246 246 246 245 245 243 244 244 244 243 243 244 245 246 247 248 249 250 252 253 254 256 256 257 259 261 263 265 265 264 263 263 262 260
243 245 247 248 248 248 249 250 249 247 247 246 246 247 248 248 247 246 246 246 245 242 240 239 241 244 244 243 246 248 250 250 252 255 256 258 259 259 257 254 253 254 253 250 247 247 247 247 246 247 246 246 246 246 245 245 244 243 244 245 245 244 244 245 246 247 248 248 249 251 252 252 253 253 254 256 259 262 263 263 263 263 263 262 261
247 249 250 250 250 251 252 251 250 249 249 249 249 249 248 247 246 244 244 244 244 243 242 241 243 246 248 251 252 253 254 254 255 256 258 262 264 263 260 255 253 254 254 252 250 249 249 248 248 249 248 247 246 246 245 244 244 243 244 245 245 245 245 245 246 246 246 247 248 249 251 251 251 251 253 255 257 259 261 261 261 262 262 262 261
250 250 249 248 249 251 251 251 250 250 250 250 251 251 249 248 246 243 240 241 244 244 243 243 243 246 251 254 253 254 256 257 258 258 260 264 266 266 264 260 256 255 255 254 253 252 250 249 249 249 250 249 247 247 246 244 243 243 243 244 244 245 245 246 246 247 247 247 247 248 250 250 250 251 252 254 255 257 258 259 260 261 261 260 260
247 249 246 244 243 245 249 250 250 249 250 250 251 251 250 248 246 243 240 240 242 243 243 243 243 245 251 252 252 254 255 258 261 260 262 264 265 268 267 264 260 258 256 255 254 253 252 251 251 251 251 249 247 245 246 246 244 243 243 244 244 243 244 245 246 247 247 247 247 247 248 249 249 250 251 251 253 254 256 257 258 259 259 258 258
243 245 243 240 238 241 246 251 252 250 250 251 251 251 250 248 246 244 242 242 241 242 243 244 244 246 249 250 253 255 255 258 261 262 264 265 265 268 268 265 262 260 259 258 257 255 254 253 252 252 251 249 247 246 246 246 246 244 243 244 245 244 243 243 245 246 247 247 247 247 247 247 248 249 249 250 251 253 254 256 256 257 257 257 257
243 243 240 238 237 238 245 252 254 252 252 252 251 251 249 246 246 245 243 243 242 242 242 243 245 247 250 252 255 257 257 259 260 262 264 265 267 267 267 266 263 261 262 262 262 260 258 257 254 253 251 248 247 246 246 246 247 246 244 245 245 244 243 244 245 246 247 247 246 246 246 246 246 247 248 249 251 252 254 255 256 256 256 257 257
242 241 236 234 234 239 246 249 250 249 250 253 255 256 251 245 245 246 245 245 244 243 243 244 246 248 251 254 256 259 260 261 260 259 260 262 265 265 265 265 262 262 264 265 266 263 261 259 257 255 252 249 246 245 246 247 248 247 246 247 247 245 245 245 246 246 247 247 246 246 246 246 247 248 248 250 252 253 254 255 255 256 256 257 257
243 236 226 225 226 232 237 235 236 239 243 252 257 257 250 243 243 246 246 246 244 243 243 244 245 247 248 250 253 257 260 260 259 258 256 257 261 262 265 267 264 264 265 265 265 263 261 261 261 259 255 252 249 245 245 247 248 247 247 248 249 248 247 247 247 247 247 247 247 246 246 247 249 249 250 252 253 254 254 255 255 255 256 257 258
243 229 216 213 216 222 228 230 231 234 239 245 245 244 244 240 238 238 237 238 237 238 239 240 242 243 244 247 251 255 257 259 260 260 259 259 261 263 267 271 269 268 268 267 265 263 263 264 265 265 260 256 251 246 245 247 247 247 247 248 249 250 249 247 247 247 247 247 247 248 248 248 249 250 252 253 254 255 255 256 255 255 256 257 257
239 225 215 210 213 220 226 227 226 229 236 241 240 237 236 235 231 228 227 227 228 230 234 237 239 242 245 249 252 254 257 259 260 262 263 265 265 266 269 271 269 269 272 270 265 263 264 266 268 269 264 260 254 248 249 252 250 247 247 247 248 250 250 249 248 249 248 249 250 250 249 249 250 251 252 254 255 255 256 256 256 256 256 256 257
227 217 209 207 208 208 204 200 196 198 203 205 213 215 217 220 217 217 221 224 227 230 233 237 240 244 250 253 255 257 259 260 260 263 265 265 264 265 269 270 267 268 272 269 265 264 266 269 272 273 270 266 260 255 253 254 253 250 248 248 250 253 253 251 250 250 250 250 252 251 250 250 251 252 253 254 255 256 256 256 255 255 256 256 257
209 200 195 192 189 182 170 164 162 159 155 147 142 142 148 164 176 189 205 216 224 228 231 236 240 243 247 252 255 258 260 263 263 266 267 265 265 266 268 268 267 268 269 267 266 267 269 271 274 277 277 274 272 268 262 257 254 253 251 250 252 256 257 255 252 252 252 252 252 253 252 253 253 254 254 255 256 257 258 257 256 256 256 256 256
192 186 180 174 168 163 155 150 147 141 134 130 125 120 118 118 120 122 141 180 209 220 223 227 234 239 242 247 253 257 261 266 267 270 271 269 270 270 270 269 268 268 269 268 267 266 269 271 271 275 279 279 279 279 275 268 261 258 256 254 254 257 260 260 257 254 254 253 252 253 254 254 254 255 255 255 256 257 258 258 258 257 257 258 258
180 176 169 163 160 155 151 148 144 137 131 126 119 114 111 105 101 95 87 82 71 85 223 220 229 240 244 248 255 261 266 271 274 276 277 276 276 278 280 275 270 270 268 267 268 267 271 272 268 271 279 281 281 281 280 277 272 267 262 258 257 258 261 263 261 258 256 254 253 252 253 253 254 255 256 256 256 257 258 259 259 259 259 259 259
181 176 171 165 161 157 155 152 147 141 140 140 132 122 114 104 98 85 69 58 45 34 350 307 266 251 251 259 268 271 273 280 289 291 287 287 287 289 295 289 280 279 274 270 269 267 274 278 269 269 281 284 282 283 282 279 278 276 270 265 262 261 262 264 263 261 259 256 254 253 253 253 254 255 256 257 257 258 259 260 260 260 259 259 259
195 189 182 177 173 168 168 167 162 157 157 162 165 169 177 177 158 39 9 346 346 339 317 314 300 284 284 287 291 289 284 292 306 309 302 299 297 296 298 294 286 284 280 280 276 269 276 284 275 273 282 284 282 282 282 280 279 278 274 271 268 267 266 266 265 263 260 258 255 254 253 254 254 255 257 258 259 259 260 261 261 260 260 260 260
214 209 203 201 202 200 199 200 201 202 209 217 226 235 246 256 265 275 282 286 294 293 291 296 293 291 294 294 296 297 296 301 306 309 307 302 301 300 297 293 291 286 281 283 282 276 280 286 283 280 283 285 285 284 282 281 281 278 276 274 272 271 270 269 268 265 262 260 258 255 255 255 255 256 257 259 259 260 261 262 262 261 261 261 261
228 226 225 226 228 231 230 231 232 234 238 243 249 253 257 261 265 270 274 275 279 278 276 278 278 281 283 282 286 292 291 294 298 300 302 300 298 298 296 295 295 292 288 288 286 283 285 288 288 287 286 287 288 287 285 284 283 281 279 276 274 273 272 271 270 269 266 263 260 258 257 256 255 256 256 257 258 260 261 263 263 263 263 263 263
236 235 236 238 240 242 243 246 249 251 252 255 260 262 262 263 265 266 268 269 269 269 268 267 267 268 269 269 272 277 281 285 289 291 293 293 293 293 294 294 293 292 292 291 289 289 290 290 289 290 289 288 288 287 285 284 284 283 281 279 278 276 275 274 273 272 271 268 265 262 260 258 257 255 255 257 259 261 263 263 264 263 264 264 264
239 238 242 245 246 248 251 254 257 257 258 261 266 269 269 268 268 267 268 268 267 266 265 265 266 266 266 266 268 271 276 282 286 288 290 290 289 289 292 292 290 292 293 292 291 291 294 294 292 292 292 290 289 287 286 284 283 283 282 281 280 278 277 277 276 275 274 273 270 268 265 262 260 259 258 260 261 262 263 264 264 263 264 264 264
240 240 244 248 250 253 255 258 260 260 261 264 268 272 271 270 270 269 269 268 268 267 266 266 267 268 269 269 269 271 274 278 282 285 287 288 288 289 291 290 289 290 291 292 291 291 293 295 294 293 293 292 290 289 288 286 284 283 281 281 280 279 279 279 278 277 277 275 274 272 270 268 266 264 264 263 264 264 264 264 264 264 264 264 264
239 242 246 249 251 253 255 258 259 260 262 265 269 271 270 268 267 267 269 269 269 268 268 268 268 268 268 268 269 270 271 273 277 280 283 284 286 288 289 290 290 291 291 292 292 292 292 294 294 293 293 292 290 288 287 286 285 284 281 280 280 280 280 280 279 278 278 277 276 274 272 271 270 269 268 267 266 266 265 265 265 265 264 264 264
239 242 246 249 251 253 256 259 261 262 263 265 270 272 270 267 266 266 267 267 268 267 266 268 269 269 268 267 267 268 269 270 274 277 279 281 282 284 286 287 289 290 291 291 292 292 292 294 294 293 292 290 288 287 286 285 284 283 281 280 280 279 279 280 280 279 279 278 277 275 274 273 272 272 271 270 270 269 268 267 266 266 265 264 263
241 242 245 247 250 253 256 260 262 264 266 267 270 273 273 269 266 266 267 267 267 266 264 266 268 268 269 267 266 266 267 269 272 276 278 279 280 281 283 285 287 289 290 290 291 291 291 292 294 294 293 291 288 286 286 285 284 282 281 279 278 278 279 279 279 279 279 278 276 276 275 274 274 273 273 273 272 272 271 269 267 266 265 264 263
242 242 245 248 250 253 256 260 262 265 269 270 272 275 277 273 267 264 264 265 265 264 264 264 265 266 267 267 267 266 266 268 270 273 275 276 278 279 281 284 286 287 288 289 290 290 290 290 291 293 294 292 290 288 287 286 284 283 282 280 278 278 279 279 278 279 279 277 276 275 275 275 275 274 273 273 272 273 273 272 269 267 266 264 263
243 245 249 250 251 253 256 261 264 267 271 273 275 277 279 276 269 262 261 262 262 262 263 264 264 264 264 266 266 265 265 266 268 270 272 273 275 276 278 281 284 286 288 289 289 290 290 289 289 291 292 292 292 290 289 287 285 284 283 283 281 279 278 277 277 278 277 276 276 275 275 275 275 274 272 271 271 272 273 273 271 269 268 266 264
243 249 253 253 255 258 261 264 266 268 270 272 275 276 275 275 270 263 261 260 259 260 263 264 264 264 263 264 265 265 265 266 268 269 270 271 273 275 277 279 282 285 287 288 289 290 290 290 289 290 291 292 292 291 290 289 287 285 284 283 282 281 279 278 277 276 276 275 275 275 275 274 273 272 271 270 270 270 271 271 271 269 268 267 265
249 254 255 256 260 263 265 267 268 269 271 272 274 273 271 271 269 266 264 260 258 259 261 263 265 265 264 264 265 265 266 267 269 270 271 272 274 275 277 280 282 283 285 286 288 289 289 290 290 290 291 291 292 292 291 289 288 286 285 284 283 281 280 279 277 276 275 275 274 274 274 274 273 271 271 271 270 270 270 270 270 270 269 268 267
256 259 258 259 262 264 266 269 270 271 272 273 272 270 270 270 270 268 266 263 261 260 261 263 264 264 264 265 265 265 265 267 268 270 271 273 275 276 277 279 281 282 283 284 285 286 287 289 290 291 291 290 291 291 290 289 287 286 285 285 284 283 282 281 279 278 277 276 276 274 274 274 273 271 270 270 271 272 271 270 270 270 270 269 268
258 259 259 261 264 266 269 271 272 273 273 273 272 271 271 271 270 269 268 266 264 263 263 263 263 264 264 265 265 264 265 267 268 269 270 273 275 275 276 277 280 281 282 282 283 284 285 286 287 289 289 289 289 290 289 288 287 286 285 285 284 284 283 282 280 279 279 279 278 276 274 274 274 272 270 270 270 271 271 270 270 270 269 269 267
258 260 263 265 267 270 272 273 273 273 273 274 274 274 273 271 270 269 269 269 268 267 266 265 264 264 265 265 265 265 266 267 269 269 270 272 274 276 277 278 279 280 280 281 282 282 283 284 285 287 287 287 288 288 288 287 286 286 285 284 284 283 283 281 279 278 279 281 280 277 275 274 274 273 272 271 271 271 271 270 270 270 269 268 267
260 262 265 267 269 271 272 273 273 273 273 274 274 274 273 272 271 270 270 270 269 267 266 265 264 264 264 264 264 264 265 267 269 270 270 272 275 277 277 278 278 278 279 279 280 281 282 283 284 285 286 287 287 287 287 286 286 286 286 285 285 283 282 281 280 279 280 280 279 277 276 274 274 273 272 272 272 271 271 270 270 270 269 268 267
261 263 265 267 269 270 271 272 273 273 274 274 274 274 274 274 273 272 272 271 269 268 266 264 264 264 264 263 263 263 264 267 268 269 271 272 274 276 276 277 278 278 278 279 280 280 281 282 283 285 286 286 286 286 286 285 284 284 285 285 285 284 282 281 280 279 280 280 278 277 275 275 275 274 273 272 272 271 271 271 270 269 269 268 267
262 263 265 267 269 270 271 272 273 274 275 275 276 276 276 276 275 274 273 272 271 269 267 265 265 264 263 262 263 264 265 268 269 269 270 272 274 275 276 277 278 278 278 279 280 281 282 283 283 284 285 285 285 285 285 284 284 283 283 283 283 282 281 280 280 279 279 278 277 275 274 274 274 274 273 273 271 270 270 271 270 269 268 267 267
264 265 267 269 270 271 271 272 273 274 275 276 277 277 277 277 276 275 274 273 272 271 269 266 265 264 263 262 264 265 267 268 269 269 270 272 273 274 275 276 277 278 277 279 280 281 282 283 283 283 284 284 284 284 284 284 284 283 283 283 282 281 280 279 279 278 278 277 276 275 274 274 274 274 273 272 271 270 270 269 269 268 267 266 266
267 268 270 271 271 272 272 273 273 273 274 276 276 277 277 277 276 275 274 273 272 271 269 267 265 264 263 264 264 266 267 268 269 270 271 272 273 274 274 275 276 276 277 278 279 280 281 281 281 282 282 283 283 284 284 284 284 284 283 282 282 280 279 278 277 277 277 276 276 275 274 273 273 273 272 271 270 269 269 268 267 266 265 265 265
268 269 270 271 272 273 273 273 273 273 274 275 275 276 277 277 276 275 274 273 272 271 269 267 265 264 264 265 265 266 267 268 269 271 272 272 273 273 274 274 275 276 276 277 278 279 280 280 281 281 282 282 283 283 284 284 284 283 282 281 281 280 278 277 277 276 276 275 275 274 273 272 272 272 271 271 270 268 267 266 266 265 264 264 264
269 269 271 271 272 273 273 272 273 273 273 274 274 274 275 276 276 275 274 272 272 271 270 269 268 266 266 267 268 267 267 268 269 271 272 272 273 273 273 274 275 276 276 277 278 279 280 281 281 281 282 282 283 283 283 283 283 282 281 280 280 279 278 277 276 276 275 274 275 274 273 272 272 271 271 271 270 268 267 266 265 265 264 264 264